Regional Weather Roundup
Issued by NWS

Home | Current Version | Previous Version | Graphics & Text | Print | Product List | Glossary On
Versions: 1 2 3 4 5 6 7 8 9 10 11 12 13 14 15 16 17 18 19 20 21 22 23 24 25 26 27 28 29 30 31 32 33 34 35 36 37 38 39 40 41 42 43 44 45 46 47 48 49 50
000
ASUS43 KLMK 281510
RWRKY
KENTUCKY REGIONAL WEATHER ROUNDUP
NATIONAL WEATHER SERVICE LOUISVILLE KY
1000 AM EST FRI NOV 28 2014

NOTE "FAIR" INDICATES FEW OR NO CLOUDS BELOW 12,000 FEET
WITH NO SIGNIFICANT WEATHER AND/OR OBSTRUCTIONS TO VISIBILITY.

KYZ001>023-026-027-061>063-070>075-281600-
WESTERN AND SOUTH CENTRAL KENTUCKY

CITY           SKY/WX    TMP DP  RH WIND       PRES   REMARKS
PADUCAH        SUNNY     33  25  72 S7        30.37F WCI  27
HENDERSON      SUNNY     30  25  80 S14       30.38S WCI  20
OWENSBORO      SUNNY     31  25  78 S14       30.40F WCI  21
HOPKINSVILLE   SUNNY     32  24  70 S9        30.40F WCI  25
BOWLING GREEN  MOSUNNY   32  20  61 SE7       30.42F WCI  26
GLASGOW        SUNNY     31  20  65 S6        30.41F WCI  25
$$

KYZ024-025-028>034-038-045-046-053-281600-
NORTH CENTRAL KENTUCKY

CITY           SKY/WX    TMP DP  RH WIND       PRES   REMARKS
LOUISVILLE/SDF PTSUNNY   30  21  69 S7        30.40F WCI  23
LOUISVILLE/LOU MOSUNNY   29  20  69 S7        30.41F WCI  22
FORT KNOX      MOSUNNY   28  23  79 S10       30.38F WCI  19
$$

KYZ035>037-039>044-047>052-055>060-089>105-281600-
NORTHEAST KENTUCKY

CITY           SKY/WX    TMP DP  RH WIND       PRES   REMARKS
LEXINGTON      PTSUNNY   28  19  69 S8        30.40F WCI  20
COVINGTON      PTSUNNY   28  17  63 S7        30.37S WCI  21
FRANKFORT      MOSUNNY   29  19  66 SW9       30.39S WCI  20
$$

KYZ054-064>069-076>088-106>120-281600-
SOUTHEAST KENTUCKY

CITY           SKY/WX    TMP DP  RH WIND       PRES   REMARKS
JACKSON        PTSUNNY   28  16  60 SW6       30.40S WCI  22
LONDON         CLOUDY    28  15  58 CALM      30.41F
SOMERSET       PTSUNNY   28  19  69 CALM      30.43F
MIDDLESBORO    NOT AVBL
MONTICELLO     PTSUNNY   30  20  66 SE6       30.45F WCI  24
$$




USA.gov is the U.S. government's official web portal to all federal, state and local government web resources and services.